Dewpoint
71 71 71 71 70 69 70 71 72 71 71 71 70 69 70 70 70 70 68 68 68 68 68 68 68 69 69 67 67 67 64 63 59 63 61 64 65 64 64 65 64 64 61
71 71 70 70 70 70 70 70 71 70 70 70 70 69 69 69 69 69 68 69 68 67 68 68 67 68 65 66 66 65 65 65 63 62 64 63 64 65 66 66 63 60 61
70 69 68 69 68 68 68 69 70 70 70 69 68 68 67 67 67 67 67 66 65 65 65 64 64 63 61 61 60 60 60 61 62 62 62 63 62 63 63 64 64 63 60
68 68 69 69 69 68 68 68 68 68 68 67 66 65 64 62 62 63 63 62 60 60 60 59 58 58 58 57 55 55 55 52 54 51 55 58 59 61 60 59 58 59 57
68 68 68 68 68 67 66 66 66 67 67 66 65 63 61 58 55 59 59 58 57 57 57 55 54 53 52 52 48 52 53 48 48 47 48 50 46 48 50 52 52 52 55
68 67 67 67 66 65 64 63 63 63 64 64 62 61 59 53 57 55 54 51 52 52 50 52 51 50 50 50 51 50 50 50 49 46 44 44 48 47 45 45 47 46 44
67 67 66 65 65 64 62 61 61 60 61 59 58 58 58 57 56 54 51 48 48 50 51 50 45 45 50 51 51 50 50 49 49 50 48 48 49 49 50 50 49 48 47
67 66 66 65 63 62 60 59 59 59 58 58 56 57 57 57 56 55 51 51 50 51 51 50 50 51 50 50 49 49 49 49 48 46 48 49 50 50 51 50 51 52 50
66 66 65 64 62 60 58 57 57 57 56 56 57 56 56 56 54 56 53 53 52 51 51 50 49 49 49 49 49 48 49 48 49 50 49 49 50 50 50 48 46 46 45
65 64 64 63 61 58 57 57 57 56 56 53 55 57 50 54 52 55 55 51 51 47 50 50 47 48 49 49 49 48 46 46 47 48 48 49 51 51 51 51 47 45 45
62 62 61 60 58 56 57 56 56 56 57 56 55 53 52 51 53 52 51 52 47 45 44 43 44 49 49 49 49 47 47 48 48 47 45 45 46 46 47 48 49 47 46
61 60 60 59 53 53 56 56 56 56 56 56 54 50 49 53 52 49 49 48 47 46 45 43 46 48 49 49 48 49 49 49 46 44 43 42 43 44 45 48 51 51 50
58 57 57 57 56 56 57 56 52 56 52 52 50 48 48 48 50 46 46 46 46 45 44 46 49 49 48 48 49 49 48 44 43 45 44 44 44 45 49 49 51 52 52
57 56 55 55 54 54 50 50 49 48 47 46 47 45 46 47 46 46 45 44 47 45 47 45 47 48 49 48 46 44 44 45 46 46 46 45 45 45 44 45 48 48 47
55 53 52 49 50 50 49 47 46 50 47 46 46 45 43 41 42 44 43 42 43 44 45 44 44 43 43 42 42 43 44 44 44 46 47 46 45 45 44 45 45 46 46
51 49 47 47 46 46 46 46 45 45 45 45 43 43 44 44 44 42 41 41 42 43 43 42 42 42 42 42 41 42 43 44 44 45 46 47 46 45 45 45 45 46 46
50 51 47 48 48 49 47 46 45 45 45 43 42 42 42 42 42 41 40 40 41 42 42 42 42 43 42 42 42 42 42 42 47 46 45 46 46 47 47 45 46 46 45
51 50 49 49 50 49 48 47 45 44 43 43 43 43 42 41 41 40 40 41 42 42 42 42 43 43 43 43 43 42 42 42 42 43 45 47 48 48 47 46 46 46 45
49 46 47 47 48 47 47 46 44 44 44 43 43 43 43 41 41 40 40 43 43 43 42 42 43 43 43 43 43 43 44 42 43 43 45 47 48 49 49 47 45 44 45
48 49 48 46 45 46 45 44 43 43 43 42 42 42 43 44 43 44 44 44 44 43 42 43 43 44 44 45 45 44 43 43 44 44 45 46 48 49 47 45 44 42 45
46 46 46 43 43 42 42 42 42 42 42 42 42 43 42 43 43 43 43 43 43 43 43 44 44 45 45 44 43 45 45 46 46 46 47 48 48 47 46 45 43 45 46
48 46 43 41 42 44 43 43 42 43 43 42 41 41 42 43 42 42 43 43 43 44 44 45 44 43 44 47 48 48 47 47 47 47 47 47 47 46 46 44 43 46 46
48 44 42 42 43 44 41 41 41 41 40 40 41 41 41 41 41 42 43 43 43 44 43 43 44 44 47 48 48 48 47 46 46 47 47 47 47 46 44 43 44 46 46
48 41 39 41 43 41 40 41 41 40 42 42 43 43 43 43 42 43 43 43 44 43 43 44 44 45 46 46 46 45 41 38 37 40 46 46 46 43 44 43 44 46 46
42 41 40 41 42 42 42 41 41 43 43 43 44 44 44 44 43 43 43 43 43 43 43 43 42 44 44 44 43 39 36 33 34 35 37 44 46 44 43 43 43 46 45
41 42 41 42 42 42 42 42 42 43 43 44 44 45 46 46 44 44 44 43 42 42 43 41 41 44 44 44 40 35 32 31 34 32 37 45 44 43 43 42 42 46 45
Lifted_Index
-4 -4 -3 -2 -2 -2 -2 -2 -2 -2 -2 -1 -1 -1 -1 -1 -1 -1 -1 -0 -0 -0 -0 -0 -0 0 1 1 1 1 1 1 1 1 1 1 1 1 1 1 1 2 2
-3 -3 -2 -2 -2 -2 -2 -2 -2 -2 -1 -1 -1 -0 -0 -0 -1 -1 -1 -0 -0 0 0 0 1 1 1 1 1 1 1 1 1 1 1 1 1 1 1 1 1 1 2
-2 -2 -2 -1 -1 -1 -1 -1 -1 -1 -1 -0 0 1 1 0 0 0 0 1 1 1 1 1 2 2 2 1 1 1 1 1 1 1 1 1 1 1 1 1 1 2 2
-2 -1 -1 -1 -1 -1 -0 -0 -0 -0 -0 0 1 2 1 1 1 1 1 2 2 2 3 3 3 3 3 3 2 2 2 1 1 1 1 1 1 1 2 2 2 3 3
-1 -1 -1 -1 -0 0 1 1 1 1 1 1 2 2 2 2 3 3 4 4 5 5 5 5 5 6 6 6 6 5 5 5 4 4 4 3 3 3 4 5 5 6 6
-1 -1 -0 0 0 1 1 1 2 2 2 2 2 3 3 4 6 7 7 8 8 8 9 9 9 9 9 9 10 10 10 10 10 9 8 7 7 8 9 9 9 9 9
-1 -0 0 1 1 1 2 2 2 2 3 3 4 5 5 6 8 9 9 9 10 10 10 10 11 11 11 11 11 12 12 12 12 12 12 11 11 11 12 12 11 11 11
-0 -0 0 1 1 2 2 3 3 4 5 6 6 6 6 7 8 9 9 9 9 10 10 11 11 11 11 12 12 12 12 12 13 13 13 13 12 12 12 12 12 12 11
-1 -1 -0 1 1 2 3 4 6 6 7 7 7 7 7 7 8 8 8 9 9 10 10 11 11 11 12 12 12 12 12 12 12 13 13 13 13 13 13 12 12 12 11
-2 -1 -1 0 1 3 5 7 7 8 8 8 7 8 8 9 9 9 9 9 9 10 10 11 11 12 12 13 13 12 12 12 12 12 13 13 12 12 12 12 12 12 11
-2 -2 -1 1 2 4 7 8 8 8 7 7 8 9 10 10 10 10 10 10 10 11 11 11 11 12 13 13 13 12 12 12 12 12 12 12 12 12 12 12 12 12 11
-2 -1 0 2 4 7 8 8 7 7 7 7 8 9 10 10 11 11 11 11 11 11 11 11 11 11 12 12 12 12 12 12 11 11 11 12 12 11 11 11 11 12 12
-1 -0 1 4 6 8 8 7 7 7 7 7 8 9 10 10 11 11 11 11 11 11 10 10 10 10 10 10 10 10 11 10 10 10 11 11 11 11 11 11 11 11 12
0 1 4 6 8 8 8 8 8 8 8 9 9 9 10 11 11 11 11 11 10 10 9 9 9 9 9 9 9 9 10 10 10 10 10 10 11 11 11 11 11 11 11
3 5 7 8 9 9 9 9 10 10 10 10 10 11 11 11 11 11 11 10 10 9 9 9 9 9 9 9 9 9 9 10 10 10 10 10 10 10 10 10 10 11 11
6 8 9 9 9 9 9 10 10 11 11 11 12 12 12 12 11 11 11 10 10 10 9 9 9 9 9 9 9 9 9 9 10 10 10 10 10 10 10 10 10 10 10
8 9 9 8 8 8 9 10 10 11 11 11 12 12 11 11 11 10 10 10 10 10 10 9 9 9 9 9 9 9 9 9 9 9 10 10 10 10 10 10 10 10 10
9 9 8 8 8 8 9 9 10 10 10 10 11 11 10 10 10 9 9 10 10 10 10 10 9 9 9 9 9 9 9 9 9 9 9 10 10 10 10 9 9 10 11
9 9 9 8 8 9 9 9 10 9 9 9 9 10 9 9 9 9 9 9 10 10 10 9 9 9 9 9 9 9 9 10 10 10 9 9 9 10 10 10 10 10 11
9 9 10 9 9 9 9 9 9 9 9 9 9 9 9 9 8 8 9 9 9 9 9 9 9 9 9 9 9 10 10 10 10 10 10 10 10 10 10 10 10 10 11
9 9 10 10 9 9 9 9 9 9 8 8 8 8 8 8 8 9 9 9 9 9 9 9 9 9 9 10 10 10 11 11 11 10 10 10 10 11 11 11 10 10 11
8 9 10 10 10 10 10 9 9 8 8 8 8 8 8 8 8 9 9 9 9 9 9 9 9 9 10 10 11 11 12 12 12 12 12 11 11 11 11 11 11 11 11
8 9 10 10 10 10 9 9 8 8 8 8 7 7 7 8 8 9 9 9 9 9 10 10 10 10 10 10 12 13 14 14 14 14 13 13 12 12 12 12 11 11 11
9 9 10 10 9 9 9 8 8 8 8 7 6 6 6 7 8 8 9 9 9 10 10 10 10 10 10 10 12 14 15 17 17 16 15 14 13 13 13 12 11 11 11
9 9 10 9 9 8 8 7 7 7 6 6 5 5 5 6 7 8 8 9 10 10 10 10 9 9 9 10 12 13 15 17 18 18 17 15 14 13 12 12 11 11 11
9 9 9 9 9 8 7 7 7 6 6 5 5 5 5 5 6 7 8 9 10 10 10 10 9 8 8 10 12 13 14 16 17 18 17 16 14 13 12 11 10 11 11